Tracking 23731 objects as of 26-Sep-2021
HD Live streaming from Space Station
objects crossing your sky now

STARLINK-1483

Track STARLINK-1483 now!
10-day predictions
STARLINK-1483 is classified as:


NORAD ID: 45743
Int'l Code: 2020-038P
Perigee: 553.6 km
Apogee: 555.1 km
Inclination: 53.1 °
Period: 95.6 minutes
Semi major axis: 6925 km
RCS: Unknown
Launch date: June 13, 2020
Source: United States (US)
Launch site: AIR FORCE EASTERN TEST RANGE (AFETR)
aabbcc
Your satellite tracking list
Your tracking list is empty




NASA's NSSDC Master Catalog

Two Line Element Set (TLE):
1 45743U 20038P   21269.35591845  .00000179  00000-0  30887-4 0  9993
2 45743  53.0556 333.0327 0001079  88.8322 271.2791 15.06409647 71210
Source of the keplerian elements: AFSPC